Time,TemperatureF,DewpointF,PressureIn,WindDirection,WindDirectionDegrees,WindSpeedMPH,WindSpeedGustMPH,Humidity,HourlyPrecipIn,Conditions,Clouds,dailyrainin,SoftwareType,DateUTC
2013-05-13 00:00:00,52.7,38.0,30.05,ENE,68,3.2,3.2,47,0.00,,,0.00,dv,2013-05-13 04:00:00,
2013-05-13 00:05:00,52.7,38.4,30.05,ENE,68,1.6,1.6,48,0.00,,,0.00,dv,2013-05-13 04:05:00,
2013-05-13 00:10:00,52.6,39.1,30.06,SSW,204,4.8,4.8,50,0.00,,,0.00,dv,2013-05-13 04:10:00,
2013-05-13 00:15:00,52.6,39.1,30.06,SW,226,3.2,3.2,50,0.00,,,0.00,dv,2013-05-13 04:15:00,
2013-05-13 00:20:00,52.5,39.0,30.06,WSW,238,0.0,0.0,50,0.00,,,0.00,dv,2013-05-13 04:20:00,
2013-05-13 00:25:00,52.5,39.0,30.06,WSW,254,3.2,3.2,50,0.00,,,0.00,dv,2013-05-13 04:25:00,
2013-05-13 00:30:00,52.4,38.9,30.06,WSW,254,0.0,0.0,50,0.00,,,0.00,dv,2013-05-13 04:30:00,
2013-05-13 00:35:00,52.4,38.9,30.06,NE,50,1.6,1.6,50,0.00,,,0.00,dv,2013-05-13 04:35:00,
2013-05-13 00:40:00,52.3,38.8,30.06,West,269,3.2,3.2,50,0.00,,,0.00,dv,2013-05-13 04:40:00,
2013-05-13 00:45:00,52.2,39.5,30.06,West,269,1.6,1.6,52,0.00,,,0.00,dv,2013-05-13 04:45:00,
2013-05-13 00:50:00,52.1,39.0,30.06,East,93,1.6,1.6,51,0.00,,,0.00,dv,2013-05-13 04:50:00,
2013-05-13 00:55:00,52.0,38.5,30.06,ESE,112,1.6,1.6,50,0.00,,,0.00,dv,2013-05-13 04:55:00,
2013-05-13 01:00:00,51.9,38.1,30.06,ESE,111,1.6,1.6,49,0.00,,,0.00,dv,2013-05-13 05:00:00,
2013-05-13 01:05:00,51.8,38.7,30.06,NE,45,1.6,1.6,51,0.00,,,0.00,dv,2013-05-13 05:05:00,
2013-05-13 01:10:00,51.8,39.4,30.06,ENE,71,1.6,1.6,53,0.00,,,0.00,dv,2013-05-13 05:10:00,
2013-05-13 01:15:00,51.7,39.0,30.06,NNW,341,1.6,1.6,52,0.00,,,0.00,dv,2013-05-13 05:15:00,
2013-05-13 01:20:00,51.6,38.6,30.05,West,270,4.8,4.8,51,0.00,,,0.00,dv,2013-05-13 05:20:00,
2013-05-13 01:25:00,51.4,38.0,30.05,WNW,300,9.7,9.7,50,0.00,,,0.00,dv,2013-05-13 05:25:00,
2013-05-13 01:30:00,51.3,38.3,30.05,WSW,257,1.6,1.6,51,0.00,,,0.00,dv,2013-05-13 05:30:00,
2013-05-13 01:35:00,51.3,37.9,30.05,South,171,3.2,3.2,50,0.00,,,0.00,dv,2013-05-13 05:35:00,
2013-05-13 01:40:00,51.1,38.1,30.05,NW,312,3.2,3.2,51,0.00,,,0.00,dv,2013-05-13 05:40:00,
2013-05-13 01:45:00,51.1,38.5,30.05,North,349,1.6,1.6,52,0.00,,,0.00,dv,2013-05-13 05:45:00,
2013-05-13 01:50:00,50.9,38.3,30.05,NE,40,1.6,1.6,52,0.00,,,0.00,dv,2013-05-13 05:50:00,
2013-05-13 01:55:00,50.8,38.2,30.05,South,191,1.6,1.6,52,0.00,,,0.00,dv,2013-05-13 05:55:00,
2013-05-13 02:00:00,50.7,37.7,30.05,SW,215,3.2,3.2,51,0.00,,,0.00,dv,2013-05-13 06:00:00,
2013-05-13 02:05:00,50.6,38.3,30.05,South,169,1.6,1.6,53,0.00,,,0.00,dv,2013-05-13 06:05:00,
2013-05-13 02:10:00,50.4,37.5,30.04,WSW,242,1.6,1.6,51,0.00,,,0.00,dv,2013-05-13 06:10:00,
2013-05-13 02:15:00,50.3,38.4,30.04,WSW,242,0.0,0.0,54,0.00,,,0.00,dv,2013-05-13 06:15:00,
2013-05-13 02:20:00,50.3,38.4,30.05,WSW,242,0.0,0.0,54,0.00,,,0.00,dv,2013-05-13 06:20:00,
2013-05-13 02:25:00,50.2,38.3,30.04,WSW,244,1.6,1.6,54,0.00,,,0.00,dv,2013-05-13 06:25:00,
2013-05-13 02:30:00,50.1,37.9,30.05,WSW,244,1.6,1.6,53,0.00,,,0.00,dv,2013-05-13 06:30:00,
2013-05-13 02:35:00,50.1,38.2,30.05,WSW,244,1.6,1.6,54,0.00,,,0.00,dv,2013-05-13 06:35:00,
2013-05-13 02:40:00,50.0,37.4,30.05,WSW,244,0.0,0.0,52,0.00,,,0.00,dv,2013-05-13 06:40:00,
2013-05-13 02:45:00,49.9,37.4,30.05,North,1,6.4,6.4,52,0.00,,,0.00,dv,2013-05-13 06:45:00,
2013-05-13 02:50:00,49.8,38.3,30.05,SW,236,4.8,4.8,55,0.00,,,0.00,dv,2013-05-13 06:50:00,
2013-05-13 02:55:00,49.6,37.1,30.05,WSW,257,4.8,4.8,52,0.00,,,0.00,dv,2013-05-13 06:55:00,
2013-05-13 03:00:00,49.6,37.4,30.05,ESE,107,1.6,1.6,53,0.00,,,0.00,dv,2013-05-13 07:00:00,
2013-05-13 03:05:00,49.6,37.8,30.05,NNE,13,1.6,1.6,54,0.00,,,0.00,dv,2013-05-13 07:05:00,
2013-05-13 03:10:00,49.6,37.8,30.06,West,259,3.2,3.2,54,0.00,,,0.00,dv,2013-05-13 07:10:00,
2013-05-13 03:15:00,49.5,37.3,30.06,SSW,197,1.6,1.6,53,0.00,,,0.00,dv,2013-05-13 07:15:00,
2013-05-13 03:20:00,49.4,37.6,30.06,SSW,197,0.0,0.0,54,0.00,,,0.00,dv,2013-05-13 07:20:00,
2013-05-13 03:25:00,49.4,37.9,30.06,SSW,197,0.0,0.0,55,0.00,,,0.00,dv,2013-05-13 07:25:00,
2013-05-13 03:30:00,49.3,37.2,30.06,WSW,252,3.2,3.2,53,0.00,,,0.00,dv,2013-05-13 07:30:00,
2013-05-13 03:35:00,49.3,37.5,30.06,WSW,251,0.0,0.0,54,0.00,,,0.00,dv,2013-05-13 07:35:00,
2013-05-13 03:40:00,49.2,37.4,30.06,NNE,31,3.2,3.2,54,0.00,,,0.00,dv,2013-05-13 07:40:00,
2013-05-13 03:45:00,49.2,37.4,30.06,West,280,3.2,3.2,54,0.00,,,0.00,dv,2013-05-13 07:45:00,
2013-05-13 03:50:00,49.3,37.2,30.06,SW,230,4.8,4.8,53,0.00,,,0.00,dv,2013-05-13 07:50:00,
2013-05-13 03:55:00,49.3,37.8,30.06,SE,128,1.6,1.6,55,0.00,,,0.00,dv,2013-05-13 07:55:00,
2013-05-13 04:00:00,49.4,37.9,30.06,SE,127,0.0,0.0,55,0.00,,,0.00,dv,2013-05-13 08:00:00,
2013-05-13 04:05:00,49.3,38.2,30.06,SE,127,0.0,0.0,56,0.00,,,0.00,dv,2013-05-13 08:05:00,
2013-05-13 04:10:00,49.3,38.5,30.07,SE,127,0.0,0.0,57,0.00,,,0.00,dv,2013-05-13 08:10:00,
2013-05-13 04:20:00,49.1,38.3,30.07,SE,128,0.0,0.0,57,0.00,,,0.00,dv,2013-05-13 08:20:00,
2013-05-13 04:25:00,49.0,38.2,30.07,SE,127,0.0,0.0,57,0.00,,,0.00,dv,2013-05-13 08:25:00,
2013-05-13 04:30:00,48.9,38.4,30.07,SE,127,0.0,0.0,58,0.00,,,0.00,dv,2013-05-13 08:30:00,
2013-05-13 04:35:00,48.7,37.9,30.07,SE,128,0.0,0.0,57,0.00,,,0.00,dv,2013-05-13 08:35:00,
2013-05-13 04:40:00,48.5,38.1,30.07,SE,127,0.0,0.0,58,0.00,,,0.00,dv,2013-05-13 08:40:00,
2013-05-13 04:45:00,48.3,38.8,30.08,SE,127,0.0,0.0,61,0.00,,,0.00,dv,2013-05-13 08:45:00,
2013-05-13 04:50:00,48.1,38.3,30.08,SE,127,0.0,0.0,60,0.00,,,0.00,dv,2013-05-13 08:50:00,
2013-05-13 04:55:00,47.9,37.8,30.08,SE,127,0.0,0.0,59,0.00,,,0.00,dv,2013-05-13 08:55:00,
2013-05-13 05:00:00,47.7,37.6,30.08,SE,128,0.0,0.0,59,0.00,,,0.00,dv,2013-05-13 09:00:00,
2013-05-13 05:05:00,47.5,37.8,30.08,SE,127,0.0,0.0,60,0.00,,,0.00,dv,2013-05-13 09:05:00,
2013-05-13 05:10:00,47.3,37.6,30.09,SE,127,0.0,0.0,60,0.00,,,0.00,dv,2013-05-13 09:10:00,
2013-05-13 05:15:00,47.2,37.5,30.09,SE,127,0.0,0.0,60,0.00,,,0.00,dv,2013-05-13 09:15:00,
2013-05-13 05:20:00,47.0,37.3,30.09,SE,128,0.0,0.0,60,0.00,,,0.00,dv,2013-05-13 09:20:00,
2013-05-13 05:25:00,46.9,37.5,30.08,SE,128,0.0,0.0,61,0.00,,,0.00,dv,2013-05-13 09:25:00,
2013-05-13 05:30:00,46.8,37.4,30.09,SE,128,0.0,0.0,61,0.00,,,0.00,dv,2013-05-13 09:30:00,
2013-05-13 05:35:00,46.6,37.2,30.08,SE,128,0.0,0.0,61,0.00,,,0.00,dv,2013-05-13 09:35:00,
2013-05-13 05:40:00,46.4,37.3,30.08,SE,128,0.0,0.0,62,0.00,,,0.00,dv,2013-05-13 09:40:00,
2013-05-13 05:45:00,46.2,37.4,30.09,SE,128,0.0,0.0,63,0.00,,,0.00,dv,2013-05-13 09:45:00,
2013-05-13 05:50:00,45.9,37.2,30.09,SE,127,0.0,0.0,63,0.00,,,0.00,dv,2013-05-13 09:50:00,
2013-05-13 05:55:00,45.5,37.1,30.09,SE,128,0.0,0.0,64,0.00,,,0.00,dv,2013-05-13 09:55:00,
2013-05-13 06:00:00,45.2,37.1,30.09,SE,127,0.0,0.0,65,0.00,,,0.00,dv,2013-05-13 10:00:00,
2013-05-13 06:05:00,44.8,36.7,30.10,SE,128,0.0,0.0,65,0.00,,,0.00,dv,2013-05-13 10:05:00,
2013-05-13 06:10:00,44.4,36.3,30.10,SE,127,0.0,0.0,65,0.00,,,0.00,dv,2013-05-13 10:10:00,
2013-05-13 06:15:00,44.1,36.6,30.10,SE,127,0.0,0.0,67,0.00,,,0.00,dv,2013-05-13 10:15:00,
2013-05-13 06:20:00,43.9,36.4,30.10,SE,128,0.0,0.0,67,0.00,,,0.00,dv,2013-05-13 10:20:00,
2013-05-13 06:25:00,43.8,36.6,30.10,SE,128,0.0,0.0,68,0.00,,,0.00,dv,2013-05-13 10:25:00,
2013-05-13 06:30:00,43.7,36.5,30.10,SE,128,0.0,0.0,68,0.00,,,0.00,dv,2013-05-13 10:30:00,
2013-05-13 06:35:00,43.6,36.4,30.11,SE,127,0.0,0.0,68,0.00,,,0.00,dv,2013-05-13 10:35:00,
2013-05-13 06:40:00,43.4,36.7,30.11,SE,127,0.0,0.0,70,0.00,,,0.00,dv,2013-05-13 10:40:00,
2013-05-13 06:45:00,43.2,36.3,30.11,SE,127,0.0,0.0,69,0.00,,,0.00,dv,2013-05-13 10:45:00,
2013-05-13 06:50:00,42.9,36.3,30.11,SE,128,0.0,0.0,70,0.00,,,0.00,dv,2013-05-13 10:50:00,
2013-05-13 06:55:00,42.8,36.4,30.12,SE,128,0.0,0.0,71,0.00,,,0.00,dv,2013-05-13 10:55:00,
2013-05-13 07:00:00,42.7,36.6,30.12,SE,127,0.0,0.0,72,0.00,,,0.00,dv,2013-05-13 11:00:00,
2013-05-13 07:05:00,42.5,36.4,30.13,SE,127,0.0,0.0,72,0.00,,,0.00,dv,2013-05-13 11:05:00,
2013-05-13 07:10:00,42.4,36.3,30.13,SE,127,0.0,0.0,72,0.00,,,0.00,dv,2013-05-13 11:10:00,
2013-05-13 07:15:00,42.3,36.4,30.14,SE,127,0.0,0.0,73,0.00,,,0.00,dv,2013-05-13 11:15:00,
2013-05-13 07:20:00,42.2,36.6,30.13,SE,128,0.0,0.0,74,0.00,,,0.00,dv,2013-05-13 11:20:00,
2013-05-13 07:25:00,42.2,36.6,30.14,SE,128,0.0,0.0,74,0.00,,,0.00,dv,2013-05-13 11:25:00,
2013-05-13 07:30:00,42.1,36.7,30.14,SE,127,0.0,0.0,75,0.00,,,0.00,dv,2013-05-13 11:30:00,
2013-05-13 07:35:00,42.0,36.6,30.14,SE,127,0.0,0.0,75,0.00,,,0.00,dv,2013-05-13 11:35:00,
2013-05-13 07:40:00,42.0,36.9,30.14,SE,127,0.0,0.0,76,0.00,,,0.00,dv,2013-05-13 11:40:00,
2013-05-13 07:45:00,42.1,37.0,30.14,SE,128,0.0,0.0,76,0.00,,,0.00,dv,2013-05-13 11:45:00,
2013-05-13 07:50:00,42.1,36.7,30.15,SE,128,0.0,0.0,75,0.00,,,0.00,dv,2013-05-13 11:50:00,
2013-05-13 07:55:00,42.2,36.6,30.15,SE,127,0.0,0.0,74,0.00,,,0.00,dv,2013-05-13 11:55:00,
2013-05-13 08:00:00,42.4,37.3,30.14,SE,127,0.0,0.0,76,0.00,,,0.00,dv,2013-05-13 12:00:00,
2013-05-13 08:05:00,42.6,37.5,30.15,SE,127,0.0,0.0,76,0.00,,,0.00,dv,2013-05-13 12:05:00,
2013-05-13 08:10:00,42.9,37.5,30.15,SE,127,0.0,0.0,75,0.00,,,0.00,dv,2013-05-13 12:10:00,
2013-05-13 08:15:00,43.1,38.0,30.15,SE,128,0.0,0.0,76,0.00,,,0.00,dv,2013-05-13 12:15:00,
2013-05-13 08:20:00,43.4,38.2,30.15,SE,127,0.0,0.0,76,0.00,,,0.00,dv,2013-05-13 12:20:00,
2013-05-13 08:25:00,43.8,38.6,30.17,SE,127,0.0,0.0,76,0.00,,,0.00,dv,2013-05-13 12:25:00,
2013-05-13 08:30:00,44.2,39.0,30.17,SE,127,0.0,0.0,76,0.00,,,0.00,dv,2013-05-13 12:30:00,
2013-05-13 08:35:00,44.5,39.3,30.17,SE,127,0.0,0.0,76,0.00,,,0.00,dv,2013-05-13 12:35:00,
2013-05-13 08:40:00,44.9,39.2,30.17,SE,128,0.0,0.0,74,0.00,,,0.00,dv,2013-05-13 12:40:00,
2013-05-13 08:45:00,45.3,39.3,30.17,SE,127,0.0,0.0,73,0.00,,,0.00,dv,2013-05-13 12:45:00,
2013-05-13 08:50:00,45.7,39.2,30.17,SE,127,0.0,0.0,71,0.00,,,0.00,dv,2013-05-13 12:50:00,
2013-05-13 08:55:00,46.2,39.4,30.18,SE,127,0.0,0.0,70,0.00,,,0.00,dv,2013-05-13 12:55:00,
2013-05-13 09:00:00,46.7,39.1,30.18,SE,128,1.6,1.6,67,0.00,,,0.00,dv,2013-05-13 13:00:00,
2013-05-13 09:05:00,47.4,39.4,30.18,SE,127,0.0,0.0,66,0.00,,,0.00,dv,2013-05-13 13:05:00,
2013-05-13 09:10:00,48.0,40.0,30.18,SE,127,0.0,0.0,66,0.00,,,0.00,dv,2013-05-13 13:10:00,
2013-05-13 09:15:00,48.5,39.9,30.18,SE,127,0.0,0.0,64,0.00,,,0.00,dv,2013-05-13 13:15:00,
2013-05-13 09:20:00,49.0,39.8,30.18,SSE,157,0.0,0.0,62,0.00,,,0.00,dv,2013-05-13 13:20:00,
2013-05-13 09:25:00,49.4,39.9,30.18,SSE,157,0.0,0.0,61,0.00,,,0.00,dv,2013-05-13 13:25:00,
2013-05-13 09:30:00,49.9,39.7,30.18,SSW,204,1.6,1.6,59,0.00,,,0.00,dv,2013-05-13 13:30:00,
2013-05-13 09:35:00,50.3,39.1,30.18,SSW,209,4.8,4.8,56,0.00,,,0.00,dv,2013-05-13 13:35:00,
2013-05-13 09:40:00,50.6,38.7,30.18,SSW,209,0.0,0.0,54,0.00,,,0.00,dv,2013-05-13 13:40:00,
2013-05-13 09:45:00,51.1,38.8,30.18,WNW,292,4.8,4.8,53,0.00,,,0.00,dv,2013-05-13 13:45:00,
2013-05-13 09:50:00,51.5,39.2,30.18,SW,231,1.6,1.6,53,0.00,,,0.00,dv,2013-05-13 13:50:00,
2013-05-13 09:55:00,52.0,39.6,30.18,West,271,8.1,8.1,53,0.00,,,0.00,dv,2013-05-13 13:55:00,
2013-05-13 10:00:00,52.4,38.5,30.19,NE,52,4.8,4.8,49,0.00,,,0.00,dv,2013-05-13 14:00:00,
2013-05-13 10:05:00,52.8,38.9,30.18,WNW,298,4.8,4.8,49,0.00,,,0.00,dv,2013-05-13 14:05:00,
2013-05-13 10:10:00,53.2,39.6,30.19,NE,43,6.4,6.4,50,0.00,,,0.00,dv,2013-05-13 14:10:00,
2013-05-13 10:15:00,53.6,40.4,30.19,West,278,4.8,4.8,51,0.00,,,0.00,dv,2013-05-13 14:15:00,
2013-05-13 10:20:00,54.0,39.6,30.19,ENE,57,6.4,6.4,48,0.00,,,0.00,dv,2013-05-13 14:20:00,
2013-05-13 10:25:00,54.3,39.5,30.19,West,262,4.8,4.8,47,0.00,,,0.00,dv,2013-05-13 14:25:00,
2013-05-13 10:30:00,54.7,39.4,30.19,West,277,8.1,8.1,46,0.00,,,0.00,dv,2013-05-13 14:30:00,
2013-05-13 10:35:00,55.0,38.0,30.19,NNE,25,4.8,4.8,42,0.00,,,0.00,dv,2013-05-13 14:35:00,
2013-05-13 10:40:00,55.2,39.5,30.19,NNW,341,0.0,0.0,45,0.00,,,0.00,dv,2013-05-13 14:40:00,
2013-05-13 10:45:00,55.4,38.8,30.19,SW,222,1.6,1.6,43,0.00,,,0.00,dv,2013-05-13 14:45:00,
2013-05-13 10:50:00,55.6,39.8,30.19,ENE,57,4.8,4.8,45,0.00,,,0.00,dv,2013-05-13 14:50:00,
2013-05-13 10:55:00,55.8,40.4,30.19,ENE,57,3.2,3.2,46,0.00,,,0.00,dv,2013-05-13 14:55:00,
2013-05-13 11:00:00,56.1,39.9,30.19,WNW,290,3.2,3.2,44,0.00,,,0.00,dv,2013-05-13 15:00:00,
2013-05-13 11:05:00,56.4,39.3,30.19,WSW,242,3.2,3.2,42,0.00,,,0.00,dv,2013-05-13 15:05:00,
2013-05-13 11:10:00,56.7,38.6,30.18,East,100,3.2,3.2,40,0.00,,,0.00,dv,2013-05-13 15:10:00,
2013-05-13 11:15:00,57.1,40.8,30.19,SW,236,3.2,3.2,44,0.00,,,0.00,dv,2013-05-13 15:15:00,
2013-05-13 11:20:00,57.5,40.2,30.19,NNE,31,3.2,3.2,42,0.00,,,0.00,dv,2013-05-13 15:20:00,
2013-05-13 11:25:00,58.0,40.2,30.19,WNW,291,4.8,4.8,41,0.00,,,0.00,dv,2013-05-13 15:25:00,
2013-05-13 11:30:00,58.3,39.6,30.18,West,259,3.2,3.2,39,0.00,,,0.00,dv,2013-05-13 15:30:00,
2013-05-13 11:35:00,58.7,39.4,30.18,ENE,69,4.8,4.8,38,0.00,,,0.00,dv,2013-05-13 15:35:00,
2013-05-13 11:40:00,59.1,39.8,30.18,WNW,303,8.1,8.1,38,0.00,,,0.00,dv,2013-05-13 15:40:00,
2013-05-13 11:45:00,59.5,39.1,30.18,ENE,69,4.8,4.8,36,0.00,,,0.00,dv,2013-05-13 15:45:00,
2013-05-13 11:50:00,59.9,38.9,30.18,ESE,107,4.8,4.8,35,0.00,,,0.00,dv,2013-05-13 15:50:00,
2013-05-13 11:55:00,60.2,38.7,30.18,NE,40,8.1,8.1,34,0.00,,,0.00,dv,2013-05-13 15:55:00,
2013-05-13 12:00:00,60.5,37.8,30.19,West,268,6.4,6.4,32,0.00,,,0.00,dv,2013-05-13 16:00:00,
2013-05-13 12:05:00,60.8,38.6,30.18,WNW,284,11.3,11.3,33,0.00,,,0.00,dv,2013-05-13 16:05:00,
2013-05-13 12:10:00,61.0,38.8,30.18,ENE,72,4.8,4.8,33,0.00,,,0.00,dv,2013-05-13 16:10:00,
2013-05-13 12:15:00,61.3,38.5,30.18,NE,47,8.1,8.1,32,0.00,,,0.00,dv,2013-05-13 16:15:00,
2013-05-13 12:20:00,61.4,38.0,30.18,NNE,14,4.8,4.8,31,0.00,,,0.00,dv,2013-05-13 16:20:00,
2013-05-13 12:25:00,61.4,39.1,30.18,East,99,9.7,9.7,33,0.00,,,0.00,dv,2013-05-13 16:25:00,
2013-05-13 12:30:00,61.5,39.2,30.18,SSW,213,6.4,6.4,33,0.00,,,0.00,dv,2013-05-13 16:30:00,
2013-05-13 12:35:00,61.9,39.0,30.18,North,359,6.4,6.4,32,0.00,,,0.00,dv,2013-05-13 16:35:00,
2013-05-13 12:40:00,61.9,38.4,30.17,NNW,337,3.2,3.2,31,0.00,,,0.00,dv,2013-05-13 16:40:00,
2013-05-13 12:45:00,61.9,39.0,30.17,South,173,3.2,3.2,32,0.00,,,0.00,dv,2013-05-13 16:45:00,
2013-05-13 12:50:00,62.1,39.7,30.17,East,90,8.1,8.1,33,0.00,,,0.00,dv,2013-05-13 16:50:00,
2013-05-13 12:55:00,62.3,38.1,30.16,NE,56,6.4,6.4,30,0.00,,,0.00,dv,2013-05-13 16:55:00,
2013-05-13 13:00:00,62.7,40.3,30.16,East,80,6.4,6.4,33,0.00,,,0.00,dv,2013-05-13 17:00:00,
2013-05-13 13:05:00,62.8,39.8,30.16,South,170,4.8,4.8,32,0.00,,,0.00,dv,2013-05-13 17:05:00,
2013-05-13 13:10:00,63.1,41.2,30.16,West,261,6.4,6.4,34,0.00,,,0.00,dv,2013-05-13 17:10:00,
2013-05-13 13:15:00,63.7,39.3,30.15,SE,124,8.1,8.1,30,0.00,,,0.00,dv,2013-05-13 17:15:00,
2013-05-13 13:20:00,64.1,39.7,30.15,West,266,6.4,6.4,30,0.00,,,0.00,dv,2013-05-13 17:20:00,
2013-05-13 13:25:00,64.3,39.2,30.15,SSW,203,11.3,11.3,29,0.00,,,0.00,dv,2013-05-13 17:25:00,
2013-05-13 13:30:00,64.5,40.0,30.15,North,355,3.2,3.2,30,0.00,,,0.00,dv,2013-05-13 17:30:00,
2013-05-13 13:35:00,65.1,41.7,30.15,West,266,9.7,9.7,32,0.00,,,0.00,dv,2013-05-13 17:35:00,
2013-05-13 13:40:00,65.3,39.4,30.15,East,94,11.3,11.3,28,0.00,,,0.00,dv,2013-05-13 17:40:00,
2013-05-13 13:45:00,65.4,39.5,30.15,SW,234,8.1,8.1,28,0.00,,,0.00,dv,2013-05-13 17:45:00,
2013-05-13 13:50:00,65.4,38.8,30.15,NNW,333,14.5,14.5,27,0.00,,,0.00,dv,2013-05-13 17:50:00,
2013-05-13 13:55:00,65.5,38.9,30.15,ENE,69,8.1,8.1,27,0.00,,,0.00,dv,2013-05-13 17:55:00,
2013-05-13 14:00:00,65.6,40.3,30.14,WSW,251,6.4,6.4,29,0.00,,,0.00,dv,2013-05-13 18:00:00,
2013-05-13 14:05:00,65.9,39.2,30.14,ENE,73,9.7,9.7,27,0.00,,,0.00,dv,2013-05-13 18:05:00,
2013-05-13 14:10:00,65.9,39.2,30.14,East,79,12.9,12.9,27,0.00,,,0.00,dv,2013-05-13 18:10:00,
2013-05-13 14:15:00,66.1,41.4,30.13,NNW,341,8.1,8.1,30,0.00,,,0.00,dv,2013-05-13 18:15:00,
2013-05-13 14:20:00,66.5,42.3,30.14,East,96,3.2,3.2,31,0.00,,,0.00,dv,2013-05-13 18:20:00,
2013-05-13 14:25:00,66.5,39.7,30.13,East,84,8.1,8.1,27,0.00,,,0.00,dv,2013-05-13 18:25:00,
2013-05-13 14:30:00,66.6,39.8,30.13,SSW,195,6.4,6.4,27,0.00,,,0.00,dv,2013-05-13 18:30:00,
2013-05-13 14:35:00,67.3,41.7,30.13,West,269,6.4,6.4,29,0.00,,,0.00,dv,2013-05-13 18:35:00,
2013-05-13 14:40:00,68.0,41.7,30.13,WSW,246,6.4,6.4,28,0.00,,,0.00,dv,2013-05-13 18:40:00,
2013-05-13 14:45:00,68.5,42.7,30.12,SW,216,8.1,8.1,29,0.00,,,0.00,dv,2013-05-13 18:45:00,
2013-05-13 14:50:00,69.0,43.2,30.12,ENE,74,6.4,6.4,29,0.00,,,0.00,dv,2013-05-13 18:50:00,
2013-05-13 14:55:00,69.2,42.7,30.12,ENE,60,11.3,11.3,28,0.00,,,0.00,dv,2013-05-13 18:55:00,
2013-05-13 15:00:00,69.2,43.3,30.12,West,266,4.8,4.8,29,0.00,,,0.00,dv,2013-05-13 19:00:00,
2013-05-13 15:05:00,69.3,43.4,30.11,West,268,8.1,8.1,29,0.00,,,0.00,dv,2013-05-13 19:05:00,
2013-05-13 15:10:00,69.1,41.9,30.11,ENE,72,6.4,6.4,27,0.00,,,0.00,dv,2013-05-13 19:10:00,
2013-05-13 15:15:00,68.9,41.7,30.11,SSW,197,4.8,4.8,27,0.00,,,0.00,dv,2013-05-13 19:15:00,
2013-05-13 15:20:00,69.0,42.5,30.11,East,94,4.8,4.8,28,0.00,,,0.00,dv,2013-05-13 19:20:00,
2013-05-13 15:25:00,69.5,42.2,30.10,West,274,8.1,8.1,27,0.00,,,0.00,dv,2013-05-13 19:25:00,
2013-05-13 15:30:00,69.5,40.8,30.10,East,101,9.7,9.7,25,0.00,,,0.00,dv,2013-05-13 19:30:00,
2013-05-13 15:35:00,69.2,40.5,30.10,NNE,12,6.4,6.4,25,0.00,,,0.00,dv,2013-05-13 19:35:00,
2013-05-13 15:40:00,69.0,41.8,30.10,SW,235,6.4,6.4,27,0.00,,,0.00,dv,2013-05-13 19:40:00,
2013-05-13 15:50:00,69.5,42.2,30.09,WNW,290,8.1,8.1,27,0.00,,,0.00,dv,2013-05-13 19:50:00,
2013-05-13 15:55:00,69.8,43.8,30.09,NNE,22,11.3,11.3,29,0.00,,,0.00,dv,2013-05-13 19:55:00,
2013-05-13 16:00:00,70.0,44.0,30.09,East,92,6.4,6.4,29,0.00,,,0.00,dv,2013-05-13 20:00:00,
2013-05-13 16:05:00,70.0,43.3,30.09,West,280,9.7,9.7,28,0.00,,,0.00,dv,2013-05-13 20:05:00,
2013-05-13 16:10:00,70.0,43.3,30.08,SSE,166,6.4,6.4,28,0.00,,,0.00,dv,2013-05-13 20:10:00,
2013-05-13 16:15:00,69.9,43.2,30.08,WSW,250,6.4,6.4,28,0.00,,,0.00,dv,2013-05-13 20:15:00,
2013-05-13 16:20:00,69.5,42.2,30.08,WSW,255,9.7,9.7,27,0.00,,,0.00,dv,2013-05-13 20:20:00,
2013-05-13 16:25:00,69.4,42.1,30.08,NE,50,8.1,8.1,27,0.00,,,0.00,dv,2013-05-13 20:25:00,
2013-05-13 16:30:00,69.4,44.1,30.08,WNW,292,11.3,11.3,30,0.00,,,0.00,dv,2013-05-13 20:30:00,
2013-05-13 16:35:00,69.6,42.3,30.08,NW,309,9.7,9.7,27,0.00,,,0.00,dv,2013-05-13 20:35:00,
2013-05-13 16:40:00,69.5,43.6,30.08,NNE,21,11.3,11.3,29,0.00,,,0.00,dv,2013-05-13 20:40:00,
2013-05-13 16:45:00,69.6,43.7,30.08,North,11,8.1,8.1,29,0.00,,,0.00,dv,2013-05-13 20:45:00,
2013-05-13 16:50:00,69.5,43.6,30.08,SSE,156,12.9,12.9,29,0.00,,,0.00,dv,2013-05-13 20:50:00,
2013-05-13 16:55:00,69.4,42.8,30.08,NE,37,16.1,16.1,28,0.00,,,0.00,dv,2013-05-13 20:55:00,
2013-05-13 17:00:00,69.2,42.0,30.08,SSW,204,11.3,11.3,27,0.00,,,0.00,dv,2013-05-13 21:00:00,
2013-05-13 17:05:00,68.9,41.7,30.08,NE,49,9.7,9.7,27,0.00,,,0.00,dv,2013-05-13 21:05:00,
2013-05-13 17:15:00,68.8,42.3,30.08,NNW,327,9.7,9.7,28,0.00,,,0.00,dv,2013-05-13 21:15:00,
2013-05-13 17:20:00,68.8,43.0,30.07,NE,51,6.4,6.4,29,0.00,,,0.00,dv,2013-05-13 21:20:00,
2013-05-13 17:25:00,68.8,43.0,30.08,South,176,12.9,12.9,29,0.00,,,0.00,dv,2013-05-13 21:25:00,
2013-05-13 17:35:00,68.5,42.1,30.08,WSW,250,9.7,9.7,28,0.00,,,0.00,dv,2013-05-13 21:35:00,
2013-05-13 17:40:00,68.3,41.9,30.07,SW,232,12.9,12.9,28,0.00,,,0.00,dv,2013-05-13 21:40:00,
2013-05-13 17:45:00,68.2,42.5,30.07,SW,216,9.7,9.7,29,0.00,,,0.00,dv,2013-05-13 21:45:00,
2013-05-13 17:50:00,68.1,43.1,30.08,South,185,6.4,6.4,30,0.00,,,0.00,dv,2013-05-13 21:50:00,
2013-05-13 17:55:00,68.0,41.0,30.08,SW,227,11.3,11.3,27,0.00,,,0.00,dv,2013-05-13 21:55:00,
2013-05-13 18:00:00,67.8,40.8,30.08,East,87,14.5,14.5,27,0.00,,,0.00,dv,2013-05-13 22:00:00,
2013-05-13 18:05:00,67.7,43.3,30.08,SW,228,6.4,6.4,31,0.00,,,0.00,dv,2013-05-13 22:05:00,
2013-05-13 18:10:00,67.4,40.5,30.08,SW,233,14.5,14.5,27,0.00,,,0.00,dv,2013-05-13 22:10:00,
2013-05-13 18:15:00,67.2,41.0,30.09,West,270,12.9,12.9,28,0.00,,,0.00,dv,2013-05-13 22:15:00,
2013-05-13 18:20:00,67.1,40.9,30.08,ENE,76,8.1,8.1,28,0.00,,,0.00,dv,2013-05-13 22:20:00,
2013-05-13 18:25:00,67.0,42.1,30.09,East,82,6.4,6.4,30,0.00,,,0.00,dv,2013-05-13 22:25:00,
2013-05-13 18:30:00,66.9,42.0,30.08,WSW,245,8.1,8.1,30,0.00,,,0.00,dv,2013-05-13 22:30:00,
2013-05-13 18:35:00,66.7,41.9,30.08,North,356,9.7,9.7,30,0.00,,,0.00,dv,2013-05-13 22:35:00,
2013-05-13 18:40:00,66.4,41.0,30.08,WSW,257,12.9,12.9,29,0.00,,,0.00,dv,2013-05-13 22:40:00,
2013-05-13 18:45:00,66.3,40.9,30.08,East,93,9.7,9.7,29,0.00,,,0.00,dv,2013-05-13 22:45:00,
2013-05-13 18:50:00,66.1,42.0,30.08,SE,145,8.1,8.1,31,0.00,,,0.00,dv,2013-05-13 22:50:00,
2013-05-13 18:55:00,65.9,41.8,30.08,East,83,4.8,4.8,31,0.00,,,0.00,dv,2013-05-13 22:55:00,
2013-05-13 19:00:00,65.7,40.4,30.08,NNW,331,6.4,6.4,29,0.00,,,0.00,dv,2013-05-13 23:00:00,
2013-05-13 19:05:00,65.4,42.0,30.08,South,174,9.7,9.7,32,0.00,,,0.00,dv,2013-05-13 23:05:00,
2013-05-13 19:10:00,65.2,40.6,30.09,South,190,4.8,4.8,30,0.00,,,0.00,dv,2013-05-13 23:10:00,
2013-05-13 19:15:00,65.0,41.0,30.08,SSW,200,11.3,11.3,31,0.00,,,0.00,dv,2013-05-13 23:15:00,
2013-05-13 19:20:00,64.9,40.3,30.08,NW,314,11.3,11.3,30,0.00,,,0.00,dv,2013-05-13 23:20:00,
2013-05-13 19:25:00,64.7,41.4,30.08,NNE,24,3.2,3.2,32,0.00,,,0.00,dv,2013-05-13 23:25:00,
2013-05-13 19:30:00,64.6,40.7,30.09,NW,317,6.4,6.4,31,0.00,,,0.00,dv,2013-05-13 23:30:00,
2013-05-13 19:35:00,64.4,41.7,30.09,WNW,283,6.4,6.4,33,0.00,,,0.00,dv,2013-05-13 23:35:00,
2013-05-13 19:40:00,64.2,41.5,30.09,WNW,287,9.7,9.7,33,0.00,,,0.00,dv,2013-05-13 23:40:00,
2013-05-13 19:45:00,64.1,41.5,30.09,NW,310,3.2,3.2,33,0.00,,,0.00,dv,2013-05-13 23:45:00,
2013-05-13 19:50:00,63.9,41.3,30.10,WNW,298,3.2,3.2,33,0.00,,,0.00,dv,2013-05-13 23:50:00,
2013-05-13 19:55:00,63.7,42.2,30.09,NW,308,1.6,1.6,35,0.00,,,0.00,dv,2013-05-13 23:55:00,
2013-05-13 20:00:00,63.4,40.9,30.09,SE,143,3.2,3.2,33,0.00,,,0.00,dv,2013-05-14 00:00:00,
2013-05-13 20:05:00,63.1,41.2,30.10,NE,49,3.2,3.2,34,0.00,,,0.00,dv,2013-05-14 00:05:00,
2013-05-13 20:10:00,62.9,41.5,30.10,SSW,204,1.6,1.6,35,0.00,,,0.00,dv,2013-05-14 00:10:00,
2013-05-13 20:15:00,62.7,41.4,30.10,SSW,204,1.6,1.6,35,0.00,,,0.00,dv,2013-05-14 00:15:00,
2013-05-13 20:20:00,62.5,41.2,30.10,WNW,300,1.6,1.6,35,0.00,,,0.00,dv,2013-05-14 00:20:00,
2013-05-13 20:25:00,62.3,41.0,30.11,WNW,300,1.6,1.6,35,0.00,,,0.00,dv,2013-05-14 00:25:00,
2013-05-13 20:30:00,62.1,41.4,30.11,WNW,295,3.2,3.2,36,0.00,,,0.00,dv,2013-05-14 00:30:00,
2013-05-13 20:35:00,61.9,41.2,30.11,WNW,295,0.0,0.0,36,0.00,,,0.00,dv,2013-05-14 00:35:00,
2013-05-13 20:40:00,61.7,42.1,30.11,WNW,295,0.0,0.0,38,0.00,,,0.00,dv,2013-05-14 00:40:00,
2013-05-13 20:45:00,61.5,42.4,30.11,WNW,295,0.0,0.0,39,0.00,,,0.00,dv,2013-05-14 00:45:00,
2013-05-13 20:50:00,61.2,43.5,30.11,WNW,295,0.0,0.0,42,0.00,,,0.00,dv,2013-05-14 00:50:00,
2013-05-13 20:55:00,60.8,43.6,30.11,WNW,294,0.0,0.0,43,0.00,,,0.00,dv,2013-05-14 00:55:00,
2013-05-13 21:00:00,60.2,43.1,30.12,WNW,295,0.0,0.0,43,0.00,,,0.00,dv,2013-05-14 01:00:00,
2013-05-13 21:05:00,59.8,43.2,30.12,WNW,295,0.0,0.0,44,0.00,,,0.00,dv,2013-05-14 01:05:00,
2013-05-13 21:10:00,59.3,43.2,30.12,WNW,295,0.0,0.0,45,0.00,,,0.00,dv,2013-05-14 01:10:00,
2013-05-13 21:15:00,58.9,42.4,30.12,NE,51,1.6,1.6,44,0.00,,,0.00,dv,2013-05-14 01:15:00,
2013-05-13 21:20:00,58.5,42.4,30.13,NE,51,0.0,0.0,45,0.00,,,0.00,dv,2013-05-14 01:20:00,
2013-05-13 21:25:00,58.2,43.4,30.13,NE,50,0.0,0.0,48,0.00,,,0.00,dv,2013-05-14 01:25:00,
2013-05-13 21:30:00,57.9,43.1,30.13,NE,51,0.0,0.0,48,0.00,,,0.00,dv,2013-05-14 01:30:00,
2013-05-13 21:35:00,57.6,43.3,30.13,NE,50,0.0,0.0,49,0.00,,,0.00,dv,2013-05-14 01:35:00,
2013-05-13 21:40:00,57.3,43.0,30.13,NE,51,0.0,0.0,49,0.00,,,0.00,dv,2013-05-14 01:40:00,
2013-05-13 21:45:00,57.0,42.7,30.13,NE,51,0.0,0.0,49,0.00,,,0.00,dv,2013-05-14 01:45:00,
2013-05-13 21:50:00,56.8,42.5,30.14,NE,51,0.0,0.0,49,0.00,,,0.00,dv,2013-05-14 01:50:00,
2013-05-13 21:55:00,56.6,42.3,30.14,NE,50,0.0,0.0,49,0.00,,,0.00,dv,2013-05-14 01:55:00,
2013-05-13 22:00:00,56.4,42.6,30.14,NE,50,0.0,0.0,50,0.00,,,0.00,dv,2013-05-14 02:00:00,
2013-05-13 22:05:00,56.1,42.3,30.14,NE,50,0.0,0.0,50,0.00,,,0.00,dv,2013-05-14 02:05:00,
2013-05-13 22:10:00,55.9,42.1,30.14,NE,51,0.0,0.0,50,0.00,,,0.00,dv,2013-05-14 02:10:00,
2013-05-13 22:15:00,55.7,41.9,30.15,NE,51,0.0,0.0,50,0.00,,,0.00,dv,2013-05-14 02:15:00,
2013-05-13 22:20:00,55.6,41.8,30.15,NE,51,0.0,0.0,50,0.00,,,0.00,dv,2013-05-14 02:20:00,
2013-05-13 22:25:00,55.4,41.6,30.16,NE,50,1.6,1.6,50,0.00,,,0.00,dv,2013-05-14 02:25:00,
2013-05-13 22:30:00,55.2,41.5,30.15,NE,51,0.0,0.0,50,0.00,,,0.00,dv,2013-05-14 02:30:00,
2013-05-13 22:35:00,55.0,41.3,30.15,NE,50,0.0,0.0,50,0.00,,,0.00,dv,2013-05-14 02:35:00,
2013-05-13 22:40:00,54.9,41.2,30.15,NE,50,0.0,0.0,50,0.00,,,0.00,dv,2013-05-14 02:40:00,
2013-05-13 22:45:00,54.6,41.3,30.16,NE,51,0.0,0.0,51,0.00,,,0.00,dv,2013-05-14 02:45:00,
2013-05-13 22:50:00,54.5,42.3,30.16,NE,50,0.0,0.0,54,0.00,,,0.00,dv,2013-05-14 02:50:00,
2013-05-13 22:55:00,54.2,42.4,30.16,NE,51,0.0,0.0,55,0.00,,,0.00,dv,2013-05-14 02:55:00,
2013-05-13 23:00:00,54.1,42.6,30.16,NE,50,0.0,0.0,56,0.00,,,0.00,dv,2013-05-14 03:00:00,
2013-05-13 23:05:00,53.8,42.7,30.16,NE,50,0.0,0.0,57,0.00,,,0.00,dv,2013-05-14 03:05:00,
2013-05-13 23:10:00,53.7,42.2,30.16,NE,50,0.0,0.0,56,0.00,,,0.00,dv,2013-05-14 03:10:00,
2013-05-13 23:15:00,53.5,41.7,30.16,NE,51,0.0,0.0,55,0.00,,,0.00,dv,2013-05-14 03:15:00,
2013-05-13 23:20:00,53.2,41.4,30.16,NE,51,0.0,0.0,55,0.00,,,0.00,dv,2013-05-14 03:20:00,
2013-05-13 23:25:00,53.0,41.2,30.17,NE,51,0.0,0.0,55,0.00,,,0.00,dv,2013-05-14 03:25:00,
2013-05-13 23:30:00,52.8,41.4,30.16,NE,50,0.0,0.0,56,0.00,,,0.00,dv,2013-05-14 03:30:00,
2013-05-13 23:35:00,52.6,41.6,30.16,NE,50,0.0,0.0,57,0.00,,,0.00,dv,2013-05-14 03:35:00,
2013-05-13 23:40:00,52.5,41.5,30.16,NE,51,0.0,0.0,57,0.00,,,0.00,dv,2013-05-14 03:40:00,
2013-05-13 23:45:00,52.4,41.4,30.17,NE,51,0.0,0.0,57,0.00,,,0.00,dv,2013-05-14 03:45:00,
2013-05-13 23:50:00,52.2,41.2,30.17,NE,51,0.0,0.0,57,0.00,,,0.00,dv,2013-05-14 03:50:00,
2013-05-13 23:55:00,52.0,41.0,30.17,NE,51,0.0,0.0,57,0.00,,,0.00,dv,2013-05-14 03:55:00,